STARLINK-11250, 60910

Orbit data source: Space-Track

STARLINK-11250, 60910 is a payload satellite owned by SpaceX/Seattle (US) in LEO that was launched on Sat, 31 Aug 2024 UTC via an FALCON 9 launch vehicle from the Air Force Eastern Test Range (AFETR). Payload-class satellites include a variety of spacecraft equipped with specific instruments for various scientific and technological missions. These include communications satellites like Starlink; space stations such as the ISS; scientific satellites like the Hubble; Earth observation satellites from companies like Planet Labs, Umbra, and HawkEye 360; GPS; miniature CubeSats for education and research; and military/defense satellites.

Loading next visibility...
Identifier
60910, 2024-154H
Orbit
LEO
Country
Flag of USUS
Related business
Manufacturer
SpaceX/Seattle
Mission
Operational Commercial Communications
Bus & Motor
STARLINK V2MD, Unknown motor
Mass
960 kg wet, ~910 kg dry
Launch date (UTC)
2024-08-31 (2 years ago)
Launch vehicle
FALCON 9
Launch site
Air Force Eastern Test Range (AFETR)
Object type
Payload
Rocket body
Debris
Shape & HBR
Box + 2 Pan, 18.1 m
Radar Cross Section
36.964 m², Large (>1 m²)

Expand to show TLE details & history
Last TLE update: 16 hours ago

TLE from 16 hours ago
0 STARLINK-11250
1 60910U 24154H   26129.87833051 -.00002275  00000-0 -13932-4 0  9997
2 60910  53.1594 189.7067 0001031  75.4227 284.6905 15.69701715 98121
Epoch: 2026-05-09T21:04Z
TLE epoch observation values (Epoch: 2026-05-09T21:04:47.756Z)
Latitude
-0.00002°
Longitude
5.81826°
Altitude
360.489 km
Speed
7.694 km/s
True Right ascension
12h 38m 49s
True Declination
0° 00' 00"
Sunlit
Object was in full shadow at epoch
Visualization orbit readout
Latitude
Unknown
Longitude
Unknown
Altitude
Unknown
Speed
Unknown
Apparent Right ascension
Unknown
Apparent Declination
Unknown
Sunlit
N/A
Visualization observer readout
Local Sidereal Time
21:24:48
Azimuth
Unknown
Elevation
Unknown
Doppler factor
Unknown
Orbital elements
Apogee altitude
360.706 km
Perigee altitude
359.317 km
Semi-major axis
6,738.148 km
Eccentricity
0.0001
Inclination
53.1594°
RAAN
189.7067°
Arg. of periapsis
75.4227°
True anomaly
284.67907°
Mean anomaly
284.6905°
Eccentric anomaly
284.68479°
Mean motion
3.92403 °/min
Orbital period
91.74 mins
BSTAR
-0.000013932
Loading maneuver chart data...
Computing Atmospheric mass density...
Loading historical data...
Loading historical data...
Loading historical data...
Loading historical data...
Loading historical data...
Loading historical data...
Loading historical data...

Documentation

Showing up to 5 results
|